Hartford, CT

7:59 PM EST on January 23, 2018 (GMT -0500)
Hartford-brainard

Weather History for KHFD - January, 2013

Change the Weather History Date:

Wednesday, January 2, 2013

  Actual Average Record
Temperature  
Mean Temperature 24 °F -  
Max Temperature 32 °F 36 °F 58 °F (1979)
Min Temperature 15 °F 19 °F -5 °F (1968)
Degree Days  
Heating Degree Days 42    
Moisture  
Dew Point 9 °F    
Average Humidity 53    
Maximum Humidity 70    
Minimum Humidity 40    
Precipitation  
Precipitation 0.00 in - - ()
Sea Level Pressure  
Sea Level Pressure 30.03 in    
Wind  
Wind Speed 7 mph (WNW)    
Max Wind Speed 14 mph    
Max Gust Speed 23 mph    
Visibility 10 miles    
Events      
Averages and records for this station are not official NWS values.
T = Trace of Precipitation, MM = Missing Value Source: NWS Daily Summary

Daily Weather History Graph

Daily Weather History Graph

Search for Another Location

Airport or City:

Trip Planner

Search our weather history database for the weather conditions in past years. The results will help you decide how hot, cold, wet, or windy it might be!

Date:

Astronomy

Jan. 02, 2013 Rise Set
Actual Time 7:17 AM EST 4:31 PM EST
Civil Twilight 6:46 AM EST 5:03 PM EST
Nautical Twilight 6:11 AM EST 5:38 PM EST
Astronomical Twilight 5:37 AM EST 6:11 PM EST
Moon 10:06 PM EST (1/2) 9:53 AM EST (1/2)
Length of Visible Light 10h 16m
Length of Day
9h 13m
Waning Gibbous, 75% of the Moon is Illuminated
Jan 2
Waning Gibbous
Jan 4
Last Quarter
Jan 11
New
Jan 18
First Quarter
Jan 26
Full

Hourly Weather History & Observations

Time (EST) Temp. Windchill Dew Point Humidity Pressure Visibility Wind Dir Wind Speed Gust Speed Precip Events Conditions
12:53 AM 19.9 °F 12.1 °F 7.0 °F 57% 29.99 in 10.0 mi NW 5.8 mph - N/A   Clear
1:53 AM 19.9 °F 12.1 °F 8.1 °F 60% 30.01 in 10.0 mi WNW 5.8 mph - N/A   Clear
2:53 AM 19.9 °F 11.1 °F 8.1 °F 60% 30.01 in 10.0 mi NW 6.9 mph - N/A   Clear
3:53 AM 19.9 °F 7.3 °F 8.1 °F 60% 29.99 in 10.0 mi NW 12.7 mph - N/A   Clear
4:53 AM 19.0 °F 11.1 °F 8.1 °F 62% 30.00 in 10.0 mi WNW 5.8 mph - N/A   Clear
5:53 AM 18.0 °F 12.7 °F 8.1 °F 65% 30.00 in 10.0 mi WNW 3.5 mph - N/A   Clear
6:53 AM 16.0 °F 8.8 °F 7.0 °F 68% 30.01 in 10.0 mi South 4.6 mph - N/A   Clear
7:53 AM 15.1 °F 9.4 °F 7.0 °F 70% 29.99 in 10.0 mi SSW 3.5 mph - N/A   Clear
8:53 AM 18.0 °F - 8.1 °F 65% 30.00 in 10.0 mi Calm Calm - N/A   Clear
9:53 AM 23.0 °F - 8.1 °F 53% 30.02 in 10.0 mi Calm Calm - N/A   Clear
10:53 AM 26.1 °F 20.5 °F 8.1 °F 47% 30.01 in 10.0 mi WSW 4.6 mph - N/A   Clear
11:53 AM 28.9 °F 23.9 °F 10.0 °F 45% 29.98 in 10.0 mi West 4.6 mph - N/A   Clear
12:53 PM 30.9 °F 25.2 °F 10.9 °F 43% 29.96 in 10.0 mi NNW 5.8 mph 16.1 mph N/A   Scattered Clouds
1:53 PM 32.0 °F 23.0 °F 10.9 °F 42% 29.97 in 10.0 mi NW 11.5 mph 18.4 mph N/A   Overcast
2:53 PM 30.9 °F 21.2 °F 12.0 °F 46% 30.00 in 10.0 mi NNW 12.7 mph 17.3 mph N/A   Overcast
3:53 PM 30.0 °F 19.5 °F 12.0 °F 47% 30.02 in 10.0 mi NW 13.8 mph 20.7 mph N/A   Overcast
4:53 PM 28.9 °F 18.6 °F 12.0 °F 49% 30.04 in 10.0 mi NNW 12.7 mph 23.0 mph N/A   Scattered Clouds
5:53 PM 28.0 °F 18.6 °F 12.9 °F 53% 30.06 in 10.0 mi NW 10.4 mph - N/A   Clear
6:53 PM 27.0 °F 17.3 °F 12.9 °F 56% 30.09 in 10.0 mi NW 10.4 mph - N/A   Clear
7:53 PM 27.0 °F 16.7 °F 10.0 °F 49% 30.10 in 10.0 mi WNW 11.5 mph 17.3 mph N/A   Clear
8:53 PM 26.1 °F 18.4 °F 8.1 °F 47% 30.10 in 10.0 mi WNW 6.9 mph - N/A   Clear
9:53 PM 25.0 °F 16.3 °F 6.1 °F 45% 30.12 in 10.0 mi WNW 8.1 mph - N/A   Clear
10:53 PM 23.0 °F 13.1 °F 1.9 °F 40% 30.14 in 10.0 mi WNW 9.2 mph 17.3 mph N/A   Clear
11:53 PM 21.0 °F 9.9 °F -0.0 °F 40% 30.16 in 10.0 mi NW 10.4 mph - N/A   Clear